Regional Weather Roundup
Issued by NWS Sioux Falls, SD

Home | Current Version | Previous Version | Graphics & Text | Print | Product List | Glossary On
Versions: 1 2 3 4 5 6 7 8 9 10 11 12 13 14 15 16 17 18 19 20 21 22 23 24 25 26 27 28 29 30 31 32 33 34 35 36 37 38 39 40 41 42 43 44 45 46 47 48 49 50
000
ASUS43 KFSD 281710
RWRFSD

WEATHER ROUNDUP FOR SE SOUTH DAKOTA/SW MINNESOTA/NW IOWA
NATIONAL WEATHER SERVICE SIOUX FALLS SD
1200 PM CDT THU MAY 28 2015

NOTE: "FAIR" INDICATES FEW OR NO CLOUDS BELOW 12,000 FEET WITH NO
SIGNIFICANT WEATHER AND OR OBSTRUCTIONS TO VISIBILITY.


SDZ038>040-050-052>070-281800-
SOUTHEAST SOUTH DAKOTA

CITY           SKY/WX    TMP DP  RH WIND       PRES   REMARKS
BROOKINGS      PTSUNNY   68  59  73 SE13      30.01F
CHAMBERLAIN    MOSUNNY   76  60  57 S10       29.90F
HURON            N/A    N/A N/A N/A MISG      29.90F
MADISON        FAIR      68  64  88 SE17G23   29.99F
MITCHELL       SUNNY     79  62  56 S21G29    29.93F
SIOUX FALLS    PTSUNNY   77  58  51 S15G23    29.99F
WINNER         FAIR      79  55  43 SW13      29.90F
YANKTON        MOSUNNY   79  57  47 S15G23    29.94F
$$

MNZ071-072-080-081-089-090-097-098-281800-
SOUTHWEST MINNESOTA

CITY           SKY/WX    TMP DP  RH WIND       PRES   REMARKS
FAIRMONT       MOSUNNY   79  52  38 S22       30.05F
JACKSON        MOSUNNY   79  52  38 S17G24    30.06F
LUVERNE        PTSUNNY   79  50  36 S23       30.02F
MARSHALL       CLOUDY    77  52  41 SW15G28   30.01S
MONTEVIDEO     CLOUDY    75  54  46 W16G25    30.01S
REDWOOD FALLS  MOSUNNY   82  51  34 SW23G29   30.01F
TRACY          PTSUNNY   80  51  36 SW22G30   30.02S
WINDOM         MOSUNNY   79  48  34 S17G32    30.04S
WORTHINGTON    MOSUNNY   79  50  36 S18G26    30.03F
$$

IAZ001>003-012>014-020>022-031-032-NEZ013-014-SDZ071-281800-
NORTHWEST IOWA

CITY           SKY/WX    TMP DP  RH WIND       PRES   REMARKS
CHEROKEE       MOSUNNY   76  55  48 S17G23    30.03F
DENISON        CLOUDY    73  61  64 SE13      30.02S
ESTHERVILLE    MOSUNNY   77  56  48 S22G31    30.05F
LE MARS        MOSUNNY   77  57  50 S16G22    30.01F
ORANGE CITY    MOSUNNY   75  54  46 S18       30.02F
SHELDON        MOSUNNY   77  63  61 S20       30.02F
SIOUX CITY     MOSUNNY   77  59  53 S9        30.00F
SPENCER        MOSUNNY   78  55  44 S21G30    30.04F
STORM LAKE     PTSUNNY   77  55  47 S21       30.06S
$$

ABBREVIATIONS USED IN REMARKS
   TC - TEMPERATURE IN CELSIUS
  WCI - WIND CHILL INDEX
   HX - HEAT INDEX
  VSB - VISIBILITY



USA.gov is the U.S. government's official web portal to all federal, state and local government web resources and services.